"Pseudo-MPEC" for P10TXQC

Created 2019 Nov 13 9:07:09 UT using Find_Orb

Click here for an explanation of pseudo-MPECs

 
 Astrometry: 
     P10TXQC  C2019 11 02jfh]Pf_IPyInx@Xm29X[t\wO*50Al.ZAstrometry=Ee);J-k#0:F51
     P10TXQC  C2019 11 02!Prn=fxredacted;`=uiG1CW+8qP#UF'b7+LQ`$/sjiq*,Gs.2MQF51
     P10TXQC  C2019 11 02i(6'yfclick^T2fp$KB/1y3trWdD;pk5$W/FDE(xfheref,R,#0WF51
     P10TXQC  C2019 11 02y@CR-=%?'IZRnI0%f@Kd?-_tI8Zl%Bi2*,7Ih:]@baPgMJ8kD.)NF51
     P10TXQC  C2019 11 021u.7xTptC($Ps'r3?8uBb-GURkU`t)KpkbnF3Bi;!s5(k!]x':h'F51
     P10TXQC  C2019 11 02IAr$'la-SodS(-Bx.gjailEAM%\,_]XdJ%KA2A+fore#lb!XBE?2F51
     P10TXQC  C2019 11 027-dCi))=aG\fL--9(lX`_@;explanation9R^^LpOj#:hGtKPl3QF51

Station data:
(F51) Pan-STARRS 1, Haleakala  (N20.707235 W156.255910)  US/Hawaii.
   Observers N. Primak, A. Schultz, S. Watters, J. Thiel, T. Goggia. Measurer
   PS1 Science Consortium. 1.8-m Ritchey-Chrétien + CCD.

Orbital elements:  P10TXQC
   Perihelion 2019 Aug 28.693486 +/- 37.4 TT = 16:38:37 (JD 2458724.193486)
Epoch 2019 Nov  2.0 TT = JDT 2458789.5   Earth MOID: 0.3587   AutoNEOCP
M  14.85603866 +/- 39               (J2000 ecliptic)
n   0.22748172 +/- 0.36             Peri.   70.97761 +/- 100
a   2.65769436 +/- 2.93             Node   258.91874 +/- 60
e   0.5185796 +/- 0.244             Incl.   13.57441 +/- 23
P   4.33                   H 20.7   G  0.15   U 12.1  SR
q 1.27946827 +/- 0.447    Q 4.03592044 +/- 44.8
From 7 observations 2019 Nov. 2 (56.0 min); mean residual 0".17
Residuals in arcseconds: 
191102 F51  .11-  .19+    191102 F51  .15-  .19-    191102 F51  .32-  .09+    
191102 F51  .02+  .09-    191102 F51  .16+  .22+    
191102 F51  .19+  .06-    191102 F51  .20+  .15-    

Ephemerides (geocentric):
Date (UTC) HH   RA              Dec         delta   r     elong  mag " sig PA
---- -- -- --  -------------   -----------  ------ ------ -----  --- ---- ---
2019 11 13 09  23 03 39.366   +18 01 01.99  .74499 1.5165 121.3 22.4 952'  16
2019 11 13 10  23 03 46.022   +18 00 39.25  .74538 1.5167 121.3 22.4 955'  16
2019 11 13 11  23 03 52.676   +18 00 16.53  .74577 1.5169 121.2 22.4 958'  16
2019 11 13 12  23 03 59.329   +17 59 53.83  .74617 1.5171 121.2 22.4 962'  16
2019 11 13 13  23 04 05.981   +17 59 31.16  .74656 1.5174 121.2 22.4 965'  16
2019 11 13 14  23 04 12.631   +17 59 08.52  .74695 1.5176 121.2 22.4 968'  16
2019 11 13 15  23 04 19.280   +17 58 45.91  .74735 1.5178 121.2 22.4 971'  16
2019 11 13 16  23 04 25.927   +17 58 23.32  .74774 1.5180 121.2 22.4 975'  16
2019 11 13 17  23 04 32.573   +17 58 00.75  .74813 1.5183 121.2 22.4 978'  16
2019 11 13 18  23 04 39.218   +17 57 38.21  .74853 1.5185 121.1 22.4 981'  16
2019 11 13 19  23 04 45.862   +17 57 15.70  .74892 1.5187 121.1 22.4 985'  16
2019 11 13 20  23 04 52.504   +17 56 53.21  .74932 1.5189 121.1 22.4 988'  16
2019 11 13 21  23 04 59.144   +17 56 30.75  .74971 1.5192 121.1 22.4 992'  16
2019 11 13 22  23 05 05.784   +17 56 08.31  .75011 1.5194 121.1 22.4 995'  16
2019 11 13 23  23 05 12.422   +17 55 45.90  .75051 1.5196 121.1 22.4 998'  16
2019 11 14 00  23 05 19.058   +17 55 23.52  .75090 1.5198 121.1 22.4  17d  16
2019 11 14 01  23 05 25.694   +17 55 01.16  .75130 1.5201 121.1 22.4  17d  16
2019 11 14 02  23 05 32.328   +17 54 38.83  .75169 1.5203 121.0 22.4  17d  16
2019 11 14 03  23 05 38.960   +17 54 16.52  .75209 1.5205 121.0 22.4  17d  16
2019 11 14 04  23 05 45.591   +17 53 54.24  .75249 1.5207 121.0 22.5  17d  16
2019 11 14 05  23 05 52.221   +17 53 31.99  .75289 1.5210 121.0 22.5  17d  16
2019 11 14 06  23 05 58.849   +17 53 09.76  .75328 1.5212 121.0 22.5  17d  16
2019 11 14 07  23 06 05.477   +17 52 47.56  .75368 1.5214 121.0 22.5  17d  16
2019 11 14 08  23 06 12.102   +17 52 25.38  .75408 1.5216 121.0 22.5  17d  16
2019 11 14 09  23 06 18.727   +17 52 03.23  .75448 1.5219 121.0 22.5  17d  16
2019 11 14 10  23 06 25.350   +17 51 41.10  .75488 1.5221 120.9 22.5  17d  16
2019 11 14 11  23 06 31.971   +17 51 19.00  .75528 1.5223 120.9 22.5  17d  16
2019 11 14 12  23 06 38.591   +17 50 56.93  .75567 1.5225 120.9 22.5  17d  16
2019 11 14 13  23 06 45.210   +17 50 34.88  .75607 1.5228 120.9 22.5  17d  16
2019 11 14 14  23 06 51.828   +17 50 12.86  .75647 1.5230 120.9 22.5  18d  16
2019 11 14 15  23 06 58.444   +17 49 50.86  .75687 1.5232 120.9 22.5  18d  16
2019 11 14 16  23 07 05.059   +17 49 28.89  .75727 1.5234 120.9 22.5  18d  16
2019 11 14 17  23 07 11.672   +17 49 06.95  .75767 1.5237 120.8 22.5  18d  16
2019 11 14 18  23 07 18.284   +17 48 45.03  .75807 1.5239 120.8 22.5  18d  16
2019 11 14 19  23 07 24.895   +17 48 23.14  .75847 1.5241 120.8 22.5  18d  16
2019 11 14 20  23 07 31.504   +17 48 01.27  .75888 1.5243 120.8 22.5  18d  16
2019 11 14 21  23 07 38.112   +17 47 39.44  .75928 1.5246 120.8 22.5  18d  16
2019 11 14 22  23 07 44.718   +17 47 17.62  .75968 1.5248 120.8 22.5  18d  16
2019 11 14 23  23 07 51.324   +17 46 55.83  .76008 1.5250 120.8 22.5  18d  16
2019 11 15 00  23 07 57.927   +17 46 34.07  .76048 1.5252 120.8 22.5  18d  16
2019 11 15 01  23 08 04.530   +17 46 12.34  .76089 1.5255 120.7 22.5  18d  16
2019 11 15 02  23 08 11.131   +17 45 50.63  .76129 1.5257 120.7 22.5  18d  16
2019 11 15 03  23 08 17.731   +17 45 28.94  .76169 1.5259 120.7 22.5  18d  16
2019 11 15 04  23 08 24.329   +17 45 07.28  .76209 1.5261 120.7 22.5  18d  16
2019 11 15 05  23 08 30.926   +17 44 45.65  .76250 1.5264 120.7 22.5  18d  16
2019 11 15 06  23 08 37.522   +17 44 24.05  .76290 1.5266 120.7 22.5  18d  16
2019 11 15 07  23 08 44.116   +17 44 02.47  .76331 1.5268 120.7 22.5  18d  16
2019 11 15 08  23 08 50.709   +17 43 40.91  .76371 1.5271 120.6 22.5  18d  16